Flag for U.S.A. Weather past 2 weeks in Amarillo, Texas, U.S.A.

Now
72 °F

More clouds than sun.


Feels Like: 74 °F
Forecast: 62 / 72 °F
Wind: 13 mph from South

Location: Amarillo International Airport

Current Time: Sep 19, 2014 at 1:07:11 PM

Latest Report: Sep 19, 2014 at 11:53 AM


Visibility: 10 mi

Pressure: 29.94 "Hg

Humidity: 73%

Dew point: 63 °F

Location of AmarilloLocation

Historic Weather in Amarillo — Graph

°F

Amarillo temperature yesterday

Maximum temperature yesterday: 73 °F (at 3:53 PM)
Minimum temperature yesterday: 63 °F (at 6:53 AM)
Average temperature yesterday: 67 °F

Past Weeks' High & Low Weather Summary

 TemperatureHumidityPressure
High92 °F (Sep 9, 4:53 PM)100% (Sep 7, 2:53 AM)30.47 "Hg (Sep 7, 2:53 AM)
Low1 °F (Sep 13, 2:53 AM)34% (Sep 4, 4:53 PM)29.62 "Hg (Sep 9, 5:53 PM)
Average66 °F78%30.03 "Hg
* Reported Sep 4 11:53 AM — Sep 19 11:53 AM, Amarillo, Weather by CustomWeather, © 2014

Note: Actual official high and low records may vary slightly from our data, if they occured in-between our weather recording intervals... More about our weather records

Advertising

Amarillo weather history for previous 24 hours

 ConditionsComfort  
Time TempWeatherWind HumidityBarometerVisibility
11:53 AM
Sep 19
72 °FMore clouds than sun.13 mph73%29.94 "Hg10 mi
10:53 AM70 °FBroken clouds.15 mph81%29.95 "Hg10 mi
9:53 AM67 °FLow clouds.9 mph90%29.95 "Hg10 mi
8:53 AM65 °FPartly sunny.8 mph94%29.95 "Hg10 mi
7:53 AM62 °FPassing clouds.7 mph100%29.93 "Hg10 mi
6:53 AM62 °FLow clouds.7 mph100%29.92 "Hg7 mi
5:53 AM61 °FClear.5 mph100%29.91 "Hg9 mi
4:53 AM63 °FPassing clouds.7 mph97%29.90 "Hg10 mi
3:53 AM63 °FClear.6 mph97%29.92 "Hg10 mi
3:00 AM64 °FOvercast.6 mph94%30.05 "Hg10 mi
2:03 AM65 °FMostly cloudy.5 mph91%30.05 "Hg10 mi
1:53 AM65 °FMostly cloudy.5 mph91%29.93 "Hg10 mi
12:53 AM64 °FOvercast.7 mph90%29.93 "Hg10 mi
11:53 PM
Sep 18
65 °FPassing clouds.9 mph87%29.94 "Hg10 mi
10:53 PM65 °FClear.10 mph85%29.94 "Hg10 mi
9:53 PM64 °FClear.9 mph87%29.93 "Hg10 mi
8:53 PM64 °FClear.6 mph84%29.90 "Hg10 mi
7:53 PM67 °FSunny.8 mph79%29.90 "Hg10 mi
6:53 PM71 °FSunny.14 mph68%29.88 "Hg10 mi
5:53 PM73 °FSunny.15 mph64%29.86 "Hg10 mi
4:53 PM72 °FSunny.16 mph68%29.87 "Hg10 mi
3:53 PM73 °FCloudy.15 mph69%29.88 "Hg10 mi
2:53 PM71 °FMore clouds than sun.15 mph76%29.90 "Hg10 mi
1:53 PM70 °FMostly cloudy.17 mph81%29.91 "Hg10 mi
Weather by CustomWeather, © 2014

See weather overviewHow to use our weather pages